Regional Weather Roundup
Issued by NWS

Home | Current Version | Previous Version | Graphics & Text | Print | Product List | Glossary On
Versions: 1 2 3 4 5 6 7 8 9 10 11 12 13 14 15 16 17 18 19 20 21 22 23 24 25 26 27 28 29 30 31 32 33 34 35 36 37 38 39 40 41 42 43 44 45 46 47 48 49 50
892
ASUS43 KFSD 280602
RWRSD

WEATHER ROUNDUP FOR SOUTH DAKOTA
NATIONAL WEATHER SERVICE SIOUX FALLS SD
100 AM CDT THU JUL 28 2016

NOTE: "FAIR" INDICATES FEW OR NO CLOUDS BELOW 12,000 FEET WITH NO
SIGNIFICANT WEATHER AND/OR OBSTRUCTIONS TO VISIBILITY.


SDZ001>005-009-010-012>017-280700-
NORTHWEST AND NORTH CENTRAL SOUTH DAKOTA

CITY           SKY/WX    TMP DP  RH WIND       PRES   REMARKS
BUFFALO          N/A     63  60  90 E10       30.06F
FAITH            N/A     65  57  75 SE7       30.14F
MOBRIDGE       PTCLDY    68  59  73 E9        30.09F
$$

SDZ012>016-024>037-041>051-057-063-072>074-280700-
SOUTHWEST AND SOUTH CENTRAL SOUTH DAKOTA

CITY           SKY/WX    TMP DP  RH WIND       PRES   REMARKS
RAPID CTY ARPT MOCLDY    61  57  87 CALM      30.16R
PIERRE         CLEAR     63  61  93 CALM      30.09R
CUSTER         CLOUDY    56  54  93 N5        30.27S FOG
ELLSWORTH AFB  MOCLDY    66  60  82 N3        30.16R
PHILIP         CLEAR     60  58  92 NW3       30.12S
PINE RIDGE     CLEAR     67  62  84 CALM      30.14F
WINNER         FAIR      63  59  87 NW3       30.12S
$$

SDZ004>011-016>023-039-040-280700-
NORTHEAST SOUTH DAKOTA

CITY           SKY/WX    TMP DP  RH WIND       PRES   REMARKS
ABERDEEN       MOCLDY    65  58  78 N3        30.09R
WATERTOWN      MOCLDY    61  57  87 N5        30.08S
BROOKINGS      PTCLDY    63  58  83 NE5       30.07
SISSETON         N/A     61  58  90 N7        30.06S
$$

SDZ017-020-022-023-036>040-048>070-280700-
SOUTHEAST SOUTH DAKOTA

CITY           SKY/WX    TMP DP  RH WIND       PRES   REMARKS
SIOUX FALLS    CLOUDY    67  61  81 N9        30.04S
HURON          CLOUDY    67  58  72 NE7       30.07R
CHAMBERLAIN    CLOUDY    69  61  75 E5        30.09S
MITCHELL       MOCLDY    67  62  84 N5        30.07R
YANKTON        PTCLDY    72  63  73 N5        30.03R
$$

ABBREVIATIONS USED IN REMARKS
   TC - TEMPERATURE IN CELSIUS
  WCI - WIND CHILL INDEX
   HX - HEAT INDEX
  VSB - VISIBILITY





USA.gov is the U.S. government's official web portal to all federal, state and local government web resources and services.